Theta_e
306 307 308 308 316 314 317 319 322 325 324 323 323 322 321 320 320 320 319 318 318 318
300 300 300 301 302 303 303 303 305 307 312 321 325 325 323 322 320 322 322 322 322 321
298 298 299 299 298 299 300 300 301 302 303 305 308 315 323 323 324 322 321 320 320 320
295 295 296 295 296 296 297 296 297 298 299 300 301 303 306 309 315 319 320 321 319 318
292 292 291 291 291 292 292 293 294 295 295 296 297 299 300 301 304 306 310 316 319 318
289 287 287 287 288 288 289 290 291 291 292 293 294 295 296 297 299 301 304 306 309 312
284 283 284 284 285 285 286 286 287 288 289 290 291 292 293 293 294 295 296 298 300 301
280 281 282 282 282 283 283 284 285 285 286 287 288 289 288 289 290 291 292 294 295 297
279 279 279 279 280 280 281 281 282 282 283 283 284 285 285 286 286 288 288 290 292 293
277 278 278 278 279 278 279 280 280 281 281 281 283 284 284 285 286 286 287 289 290 291
276 276 277 277 277 278 278 278 279 279 280 280 281 282 283 283 284 285 286 287 288 289
275 275 275 275 276 277 277 277 278 278 279 279 279 281 281 282 282 283 283 285 287 288
274 274 274 275 275 275 276 275 276 276 277 278 277 279 280 281 281 281 281 283 284 284
272 272 273 273 273 274 274 274 274 274 276 276 277 278 279 280 280 279 279 280 281 282
Wind_Speed
12 7 7 9 6 6 5 5 7 5 5 7 8 8 8 8 8 9 10 14 12 9
12 11 10 10 9 6 7 7 8 8 8 7 9 11 10 8 9 11 11 13 14 13
12 12 11 10 11 10 9 10 10 10 10 9 9 10 9 9 8 10 8 8 11 12
11 11 11 10 10 10 10 11 11 11 11 10 10 11 10 10 9 10 11 10 11 13
11 11 12 11 12 12 11 11 11 11 11 11 11 11 11 12 11 12 13 11 11 13
11 12 12 12 12 12 13 12 12 12 12 12 12 12 12 12 13 14 14 14 14 15
11 11 11 11 12 12 11 12 12 12 12 12 12 13 12 14 15 15 15 15 16 16
10 11 10 10 12 12 11 10 11 12 12 12 11 8 15 16 17 16 17 16 16 15
10 11 12 12 11 11 11 11 11 11 12 13 9 17 19 18 16 17 17 16 16 17
12 11 11 11 11 11 12 13 13 12 12 12 13 18 21 21 15 16 16 18 16 15
8 9 10 11 12 13 12 12 11 12 12 13 12 19 22 23 16 15 16 17 18 18
9 10 10 11 12 12 12 12 11 12 13 13 13 19 22 21 16 15 17 16 17 18
9 9 10 11 12 12 12 12 11 13 12 15 15 18 20 19 11 14 13 15 16 21
9 10 10 11 11 11 13 13 13 14 13 14 13 14 20 21 14 13 14 13 13 12
Wind_Direction
51 54 49 40 43 39 26 16 358 314 256 251 249 239 235 234 234 221 234 221 229 233
48 50 50 45 42 38 31 16 8 5 352 315 270 264 254 245 235 241 233 238 240 240
48 47 45 43 38 27 20 12 6 3 357 346 338 325 299 269 251 250 242 240 241 237
38 34 32 30 21 13 3 1 359 353 347 343 339 336 324 311 301 280 267 251 247 251
35 27 20 12 7 1 354 352 348 345 340 337 333 328 321 313 308 297 287 280 265 254
36 21 11 2 356 356 351 349 348 344 340 334 329 324 320 315 308 303 296 293 289 282
15 22 5 357 351 349 350 349 349 344 337 334 330 324 325 325 316 308 302 300 294 292
6 13 359 356 357 346 344 352 349 341 337 334 330 336 333 323 316 310 305 301 297 295
6 4 7 353 345 342 345 353 351 345 341 335 324 331 327 326 317 311 306 302 300 299
4 358 351 343 339 339 349 349 344 339 336 323 319 330 326 323 314 308 304 300 301 300
2 351 343 343 346 343 344 337 333 328 325 321 317 328 325 324 311 306 303 299 300 298
358 346 340 340 339 336 331 329 327 323 317 315 318 327 329 328 316 312 306 303 302 301
348 340 333 332 332 328 323 317 320 314 316 316 316 323 325 325 315 307 308 307 304 300
339 331 326 327 324 320 320 318 316 318 321 317 318 320 320 320 315 310 306 303 302 298